sat.trackr.live / text

‹ back to catalog

STARLINK-5772

NORAD 56024 · 2023-042AQ

PAYLOAD ACTIVE UNKNOWN

§ Identity

Operator
Country
US
Launch date
2023-03-24
Launch site
AFETR
Launch vehicle
Mass (kg)
RCS (m²)

Purposes: comms

External: N2YO · Heavens-Above · Gunter

§ Orbital elements

Epoch: 2026-09-20T18:33:48.957984Z

Period
94.27 min
Inclination
43.0039°
Eccentricity
0.0001096
Mean motion
15.27553527 rev/d
Perigee alt
482.4 km
Apogee alt
483.9 km
Semi-major
6,861.3 km
B*
-9.8497e-5
RAAN
23.2692°
Arg perigee
271.6704°
Mean anomaly
88.4022°
Rev number
19,287

§ Raw data

STARLINK-57721 56024U 23042AQ  26263.77348331 -.00002969  00000+0 -98497-4 0  99912 56024  43.0039  23.2692 0001096 271.6704  88.4022 15.27553527192878

JSON: /api/v1/satellites/56024 · /tle

For live sub-satellite position, see the globe view (requires WebGL).

§ Visibility from observer

Set your observer location to see the next 7 days of passes ≥ 10°. The values pass through the URL so the page stays shareable.

No JS? Fill the form by hand. The geolocation button needs JavaScript.